Вернуться в каталог

KUIPER-00025

АктивенСвязьLEO
NORAD 63739·PAYLOAD·🇺🇸 United States

Запущен Apr 28, 2025 с Cape Canaveral Space Force Station

Loading…

Ближайшие Пролёты (ближайшие 24 часа)

TLE

СвежийSource: CelesTrak SupGP

Эпоха: Sep 14, 2026, 23:03 UTC

1 63739C 25088R   26257.96048611  .00002270  00000+0  29722-3 0  2570
2 63739  51.9038 343.6922 0000542  89.6371 193.4911 14.79922457    19

Отслеживайте KUIPER-00025 в реальном времени с AllMySat

Download on the App Store